AirNav   Everest Fuels
 
 482 users online  

1MO Mountain Grove Memorial Airport
Mountain Grove, Missouri, USA

GOING TO MOUNTAIN GROVE?


FAA INFORMATION EFFECTIVE 13 AUGUST 2020

Location

FAA Identifier: 1MO
Lat/Long: 37-07-15.1011N 092-18-36.3840W
37-07.251685N 092-18.606400W
37.1208614,-92.3101067
(estimated)
Elevation: 1476.4 ft. / 450.0 m (surveyed)
Variation: 01E (2010)
From city: 3 miles SW of MOUNTAIN GROVE, MO
Time zone: UTC -5 (UTC -6 during Standard Time)
Zip code: 65711

Airport Operations

Airport use: Open to the public
Control tower: no
ARTCC: KANSAS CITY CENTER
FSS: COLUMBIA FLIGHT SERVICE STATION
NOTAMs facility: COU (NOTAM-D service available)
Attendance: CONTINUOUS
Wind indicator: lighted
Segmented circle: yes
Lights: ACTVT REIL RWY 08 & 26; MIRL RWY 08/26 - CTAF.
Beacon: white-green (lighted land airport)
ROTG BCN ON WATER TOWER EAST OF ARPT. Operates sunset to sunrise.

Airport Communications

CTAF: 122.9
  • APCH/DEP SVC PRVDD BY KANSAS CITY ARTCC ON FREQS 128.35/284.675 (RICHLAND RCAG).

Nearby radio navigation aids

VOR radial/distance  VOR name  Freq  Var
DGDr077/27.8DOGWOOD VORTAC109.4001E
MAPr215/37.6MAPLES VORTAC113.4006E
TBNr192/(38.2)FORNEY VOR110.0000E

Airport Services

Parking: tiedowns
Airframe service: MINOR
Powerplant service: MAJOR

Runway Information

Runway 8/26

Dimensions: 2922 x 60 ft. / 891 x 18 m
Surface: asphalt/rubberized friction seal coat, in excellent condition
Runway edge lights: medium intensity
RUNWAY 8  RUNWAY 26
Latitude: 37-07.214888N37-07.288480N
Longitude: 092-18.903510W092-18.309288W
Elevation: 1452.2 ft.1476.2 ft.
Traffic pattern: leftleft
Runway heading: 080 magnetic, 081 true260 magnetic, 261 true
Markings: nonprecision, in good conditionnonprecision, in good condition
Visual slope indicator: 2-light PAPI on left (4.00 degrees glide path)2-light PAPI on left (4.00 degrees glide path)
Runway end identifier lights: yesyes
Touchdown point: yes, no lightsyes, no lights
Obstructions: 46 ft. trees, 307 ft. from runway, 150 ft. right of centerline, 2:1 slope to clear
RWY 8 HAS 18-54 FT TREES 0-200 FT FROM RWY END 150-228 FT RIGHT AND 195-200 FT LEFT.
15 ft. road, 285 ft. from runway, 250 ft. left and right of centerline, 5:1 slope to clear

Airport Ownership and Management from official FAA records

Ownership: Publicly-owned
Owner: CITY OF MOUNTAIN GROVE
100 E. STATE, P.O. BOX 351
MOUNTAIN GROVE, MO 65711
Phone 417-926-4162
Manager: TIM SCHOOK
100 E. STATE STREET
MOUNTAIN GROVE, MO 65711
Phone (417) 926-4162

Airport Operational Statistics

Aircraft based on the field: 10
Single engine airplanes: 9
Jet airplanes: 1
  • ULTRALIGHT ACTVTY ON & INVOF ARPT.
    
Aircraft operations: avg 53/week *
54% transient general aviation
46% local general aviation
* for 12-month period ending 31 December 2018

Additional Remarks

CROP DUSTING ACFT ON & INVOF ARPT.
NUMEROUS PART 77 OBSTRUCTIONS IN PRIMARY, APPROACH, & TRANSTIONAL SURFACES AROUND ENTIRE RY.
FOR CD CTC KANSAS CITY ARTCC AT 913-254-8508.

Instrument Procedures

NOTE: All procedures below are presented as PDF files. If you need a reader for these files, you should download the free Adobe Reader.

NOT FOR NAVIGATION. Please procure official charts for flight.
FAA instrument procedures published for use from 13 August 2020 at 0901Z to 10 September 2020 at 0900Z.

 
IAPs - Instrument Approach Procedures
RNAV (GPS) RWY 08 **CHANGED**   download (188KB)
RNAV (GPS) RWY 26 **CHANGED**   download (196KB)
NOTE: Special Take-Off Minimums/Departure Procedures apply   download (158KB)

Other nearby airports with instrument procedures:

KTVB - Cabool Memorial Airport (11 nm E)
KAOV - Ava Bill Martin Memorial Airport (20 nm SW)
M48 - Houston Memorial Airport (20 nm NE)
KUNO - West Plains Regional Airport (24 nm SE)
KMNF - Mountain View Airport (30 nm E)
 
Loc | Ops | Rwys | IFR | FBO | Links
Com | Nav | Svcs | Stats | Notes
Area around 1MO (Mountain Grove Memorial Airport)
 
Road maps at: MapQuest Bing Google
 
Aerial photo
WARNING: Photo may not be current or correct
Aerial photo of 1MO (Mountain Grove Memorial Airport)
Photo taken 06-Jan-2013
looking west southwest.

Do you have a better or more recent aerial photo of Mountain Grove Memorial Airport that you would like to share? If so, please send us your photo.

 
Sectional chart

 
Airport distance calculator
Flying to Mountain Grove Memorial Airport? Find the distance to fly.

From to 1MO

Sunrise and sunset
Times for 14-Aug-2020
 Local
(UTC-5)
 Zulu
(UTC)
Morning civil twilight05:5910:59
Sunrise06:2711:27
Sunset20:0101:01
Evening civil twilight20:2801:28

Current date and time
Zulu (UTC)  14-Aug-2020 07:17:46
Local (UTC-5)  14-Aug-2020 02:17:46
 
METAR
KUNO 
24nm SE 
140653Z AUTO 00000KT 5SM BR CLR 22/21 A3001 RMK AO2 SLP147 T02170206
KLBO 
36nm NW 
140655Z AUTO 10004KT 10SM CLR 22/21 A3001 RMK AO2
KTBN 
37nm N 
140656Z AUTO 09004KT 10SM CLR 22/21 A3000 RMK AO2 SLPNO T02240214
KBPK 
46nm S 
140653Z AUTO 12003KT 10SM CLR 23/21 A2997 RMK AO2 SLP138 T02330211
TAF
KBPK 
46nm S 
140520Z 1406/1506 VRB03KT P6SM FEW040 SCT100 FM140900 12004KT 4SM BR SCT005 BKN120 TEMPO 1410/1414 1SM BR OVC005 FM141500 10006KT P6SM SCT040 SCT250 FM150000 08003KT P6SM SKC
NOTAMs
Click for the latest NOTAMs
NOTAMs are issued by the DoD/FAA and will open in a separate window not controlled by AirNav.

 

 
 

Would you like to see your business listed on this page?

 If your business provides an interesting product or service to pilots, flight crews, aircraft, or users of the Mountain Grove Memorial Airport, you should consider listing it here.  To start the listing process, click on the button below
 
Add a business
 

Other Pages about Mountain Grove Memorial Airport

Update a link
 
Copyright © AirNav, LLC. All rights reserved. Privacy Policy  Contact